STARLINK-1321 (45573 NORAD) Tracking and Keplerian Element Data

This shows tracking and keplerian element data for the satellite.

Feedback or suggestion? Click here.




ElementValue
Catalog45573
NameSTARLINK-1321
Epoch Orbit177
Epoch Day188.91667824
Epoch Year2020
RAAN30.3658
Inclination52.9983
Eccentricity0.0001353
Argument of Perigee29.798
Mean Anonmoly344.294
Mean Motion15.62767616
Decay Rate0.00026538
L11 45573U 20025AU 20188.91667824 .00026538 00000-0 29454-3 0 9996
L22 45573 52.9983 30.3658 0001353 29.7980 344.2940 15.62767616 1772

Live tracking and technical data element details for STARLINK-1321 (NORAD 45573). STARLINK-1321 can be tracked NOW for your location showing map with azimuth and elevation plus other details from your city location.

Track the satellite on the map from your city or location and see movement details for azimuth, elevation, latitude, longitude, range, height, and movement on the map or in text.







IsCatalogInMostPopularTable: catalog: 45573, numindb: 18
Update: records affected: 1



GetName: 45573 STARLINK-1321

Hit Count: updated at: Wed, 08 Jul 2020 03:58:58 GMT